#timestamp,LO_Frequency,Hit,StdDev 
1555146015.2,286046994.9,N
1555146035.9,286046997.9,N
1555146055.7,286046997.6,N
1555146075.6,286046997.4,N
1555146095.4,286046997.2,N
1555146115.2,286046997.8,N
1555146135.1,286047002.6,N
1555146136.0,286047002.6,N
1555146155.8,286047004.7,N
1555146175.7,286047006.6,N
1555146195.5,286047007.8,N
1555146215.3,286047021.3,N
1555146235.2,286047017.7,N
1555146255.0,286047018.8,N
1555146255.9,286047018.8,N
1555146275.7,286047015.7,N
1555146295.6,286047014.2,N
1555146315.4,286047013.3,N
1555146335.3,286047009.8,N
1555146355.1,286047004.5,N
1555146356.0,286047004.5,N
1555146375.8,286047003.8,N
1555146395.7,286047002.4,N
1555146415.5,286046998.4,N
1555146435.3,286046997.7,N
1555146455.2,286046997.8,N
1555146475.6,286046996.3,N
1555146495.5,286046994.5,N
1555146515.3,286046992.3,N
1555146535.1,286046994.8,N
1555146555.9,286046995.0,N
1555146575.7,286047002.8,N
1555146595.5,286047006.0,N
1555146615.4,286047003.4,N
1555146635.2,286047009.5,N
1555146655.1,286047010.2,N
1555146656.0,286047010.2,N
1555146675.8,286047006.9,N
1555146695.6,286047006.6,N
1555146715.5,286047003.8,N
1555146735.3,286047001.7,N
1555146755.2,286047002.5,N
1555146775.9,286046998.2,N
1555146795.7,286046997.9,N
1555146815.6,286046994.0,N
1555146835.4,286046991.7,N
1555146855.2,286046994.3,N
1555146875.1,286046991.7,N
1555146876.0,286046991.7,N
1555146895.8,286046990.2,N
1555146915.7,286046990.5,N
1555146935.5,286046991.4,N
1555146955.3,286046987.0,N
1555146975.2,286046987.3,N
1555146995.0,286046988.0,N
1555146995.9,286046988.0,N
1555147015.7,286046985.6,N
1555147035.6,286046984.4,N
1555147055.4,286046985.2,N
1555147075.3,286046984.5,N
1555147095.1,286046985.0,N
1555147115.1,286046983.9,N
1555147135.8,286046984.9,N
1555147155.7,286046986.8,N
1555147175.5,286046984.2,N
1555147195.4,286046984.2,N
1555147215.2,286046986.8,N
1555147235.0,286046985.5,N
1555147235.9,286046985.5,N
1555147255.8,286046988.3,N
1555147275.8,286046985.9,N
1555147295.7,286046985.5,Y
1555147315.5,286046999.5,P
1555147335.3,286046996.6,N
1555147355.2,286046998.8,N
1555147375.0,286047001.2,N
1555147375.9,286047001.2,N
1555147395.8,286046998.6,N
1555147415.6,286047000.0,N
1555147435.4,286047000.5,N
1555147455.3,286046999.7,N
1555147475.1,286047001.0,N
1555147495.8,286046996.8,N
1555147515.7,286046999.1,N
1555147535.5,286046997.8,N
1555147555.3,286046996.5,N
1555147575.2,286046999.5,N
1555147595.0,286046996.9,N
1555147615.2,286046998.8,N
1555147635.9,286046998.8,N
1555147655.7,286046998.4,N
1555147675.6,286046999.3,N
1555147695.4,286046998.3,N
1555147715.2,286047009.4,Y
1555147735.1,286047015.3,P
1555147736.0,286047015.3,N
1555147755.8,286047013.7,N
1555147775.7,286047012.2,N
1555147795.5,286047011.5,N
1555147815.3,286047010.1,N
1555147835.2,286047008.0,N
1555147855.9,286047009.1,N
1555147875.7,286047005.1,N
1555147895.6,286047004.8,N
1555147915.4,286047015.2,Y
1555147935.3,286047009.5,P
1555147955.1,286047008.1,P
1555147956.0,286047008.1,P
1555147975.8,286047005.5,Y
1555147995.7,286046993.8,P
1555148015.5,286046993.9,N
1555148035.3,286046992.8,N
1555148055.2,286046990.5,N
1555148075.0,286046991.0,N
1555148075.9,286046991.0,N
1555148095.8,286046992.1,N
1555148115.6,286046992.7,N
1555148135.4,286046990.5,N
1555148155.3,286046990.9,N
1555148175.1,286046988.9,N
1555148195.8,286046986.9,N
1555148215.7,286046987.8,N
1555148235.5,286046989.8,N
1555148255.4,286046989.9,N
1555148275.2,286046987.2,N
1555148295.0,286046985.8,Y
1555148295.9,286046985.8,P
1555148315.8,286046993.7,N
1555148335.6,286046994.2,N
1555148355.4,286046994.1,N
1555148375.3,286046994.2,N
1555148395.1,286046994.3,N
1555148415.9,286046993.5,N
1555148435.7,286046996.2,N
1555148455.5,286046996.4,N
1555148475.4,286046995.5,N
1555148495.2,286046996.4,N
1555148515.0,286046996.0,N
1555148515.9,286046996.0,N
1555148535.8,286046996.4,N
1555148555.6,286046993.8,N
1555148575.5,286046993.9,N
1555148595.3,286046993.6,N
1555148615.1,286046994.2,N
1555148635.9,286046994.6,N
1555148655.7,286046994.1,N
1555148675.5,286046994.7,N
1555148695.4,286046994.8,N
1555148745.2,286046994.2,E
1555148755.1,286046997.6,N
1555148775.9,286047002.4,P
1555148795.7,286047002.2,N
1555148815.6,286047002.2,N
1555148835.4,286046999.9,N
1555148855.2,286047002.8,N
1555148875.1,286047002.5,N
1555148876.0,286047002.5,N
1555148895.8,286047003.0,N
1555148915.7,286047005.5,Y
1555148935.5,286047003.5,P
1555148955.3,286047003.3,P
1555148975.2,286047004.3,P
1555148995.9,286047001.5,N
1555149015.7,286047001.8,N
1555149035.6,286047001.6,N
1555149055.4,286047001.1,N
1555149075.3,286046998.9,N
1555149095.1,286046998.7,N
1555149096.0,286046998.7,N
1555149115.8,286046998.6,N
1555149135.7,286047001.0,N
1555149155.5,286047000.6,N
1555149175.3,286047002.2,N
1555149195.2,286047001.3,N
1555149215.0,286047002.2,N
1555149215.9,286047002.2,N
1555149235.8,286047018.0,Y
1555149255.6,286047014.4,P
1555149275.4,286047015.0,N
1555149295.3,286047013.8,N
1555149315.1,286047009.4,N
1555149365.9,286047009.1,E
1555149375.8,286047004.1,N
1555149395.6,286046997.6,P
1555149415.5,286046995.8,N
1555149435.3,286046993.6,N
1555149455.2,286046993.5,N
1555149475.9,286046996.0,N
1555149495.7,286046994.7,N
1555149515.6,286046993.9,N
1555149535.4,286046994.6,N
1555149555.2,286046994.3,N
1555149575.1,286046992.3,N
1555149576.0,286046992.3,N
1555149595.8,286046992.2,N
